Location: Betra
(48.4113°N, 8.6634°E)
Time: 18:08:32
(UTC+00:00)

USA 234 - Pass Details

Date: 23 May 2024
Orbit: 1100 x 1107 km, 123.0° (Epoch: 16 June)

Event Time Altitude Azimuth Distance (km) Brightness Sun altitude
Exits shadow 00:56:34 17° 164° (SSE) 2,450 4.6 -17.8°
Maximum altitude 01:01:12 42° 227° (SW) 1,520 3.6 -17.5°
Drops below altitude 10° 01:07:21 10° 297° (WNW) 2,964 5.5 -17.0°
Sets 01:10:01 0° 304° (NW) 3,924 6.3 -16.9°
